Location: Chatou
(48.8898°N, 2.1586°E)
Time: 17:46:01
(UTC+00:00)

SL-08 ROCKET BODY - Pass Details

Date: 03 February 2023
Orbit: 896 x 963 km, 83.0° (Epoch: 29 March)

Event Time Altitude Azimuth Distance (km) Brightness Sun altitude
Rises 17:29:48 0° 353° (N) 3,551 7.3 -6.7°
Reaches altitude 10° 17:32:20 10° 357° (N) 2,598 6.6 -7.1°
Maximum altitude 17:38:09 58° 77° (ENE) 1,045 4.4 -8.0°
Drops below altitude 10° 17:43:53 10° 156° (SSE) 2,565 6.6 -8.9°
Sets 17:46:22 0° 160° (SSE) 3,501 7.4 -9.3°
